Location: Borz?cin
(51.1714°N, 19.6030°E)
Time: 07:02:03
(UTC+00:00)

Meteor 2-10 Rocket - Pass Details

Date: 19 May 2025
Orbit: 733 x 881 km, 81.2° (Epoch: 16 June)

Event Time Altitude Azimuth Distance (km) Brightness Sun altitude
Rises 23:00:05 0° 346° (NNW) 3,439 8.2 -18.7°
Reaches altitude 10° 23:02:30 10° 346° (NNW) 2,514 7.2 -18.6°
Maximum altitude 23:08:15 84° 260° (W) 889 3.7 -18.5°
Enters shadow 23:11:11 31° 174° (S) 1,492 4.4 -18.5°
